Weather History for KFOZ - September, 2013

Change the Weather History Date:

Wednesday, September 4, 2013

  Actual Average (KGPZ) Record (KGPZ)
Temperature  
Mean Temperature 56 °F -  
Max Temperature 71 °F 74 °F 92 °F (1922)
Min Temperature 42 °F 49 °F 22 °F (1918)
Degree Days  
Heating Degree Days 8    
Growing Degree Days 6 (Base 50)    
Moisture  
Dew Point 47 °F    
Average Humidity 68    
Maximum Humidity 94    
Minimum Humidity 31    
Precipitation  
Precipitation 0.00 in - - ()
Sea Level Pressure  
Sea Level Pressure 30.15 in    
Wind  
Wind Speed 2 mph (North)    
Max Wind Speed 7 mph    
Max Gust Speed -    
Visibility 9 miles    
Events      
Averages and records for this station are not official NWS values.
T = Trace of Precipitation, MM = Missing Value Source: NWS Daily Summary

Daily Weather History Graph

Daily Weather History Graph

Search for Another Location

Airport or City:

Trip Planner

Search our weather history database for the weather conditions in past years. The results will help you decide how hot, cold, wet, or windy it might be!

Date:

Astronomy

Sep. 04, 2013 Rise Set
Actual Time 6:37 AM CDT 7:48 PM CDT
Civil Twilight 6:05 AM CDT 8:20 PM CDT
Nautical Twilight 5:27 AM CDT 8:58 PM CDT
Astronomical Twilight 4:46 AM CDT 9:39 PM CDT
Moon 5:50 AM CDT (9/4) 7:06 PM CDT (9/4)
Length of Visible Light 14h 14m
Length of Day
13h 11m
Waning Crescent, 1% of the Moon is Illuminated
Sep 4
Waning Crescent
Sep 5
New
Sep 12
First Quarter
Sep 19
Full
Sep 26
Last Quarter

Hourly Weather History & Observations

Time (CDT) Temp. Dew Point Humidity Pressure Visibility Wind Dir Wind Speed Gust Speed Precip Events Conditions
12:13 AM 64.4 °F 57.2 °F 77% 29.99 in 10.0 mi NW 3.5 mph - N/A   Clear
12:33 AM 64.4 °F 57.2 °F 77% 30.00 in 10.0 mi NNW 3.5 mph - N/A   Clear
12:53 AM 64.4 °F 57.2 °F 77% 30.01 in 10.0 mi NNW 4.6 mph - N/A   Clear
1:13 AM 64.4 °F 57.2 °F 77% 30.02 in 10.0 mi Calm Calm - N/A   Clear
1:33 AM 62.6 °F 57.2 °F 82% 30.03 in 10.0 mi Calm Calm - N/A   Clear
1:54 AM 60.8 °F 55.4 °F 82% 30.04 in 10.0 mi Calm Calm - N/A   Clear
2:13 AM 60.8 °F 55.4 °F 82% 30.05 in 10.0 mi Calm Calm - N/A   Clear
2:33 AM 59.0 °F 55.4 °F 88% 30.06 in 10.0 mi NNW 3.5 mph - N/A   Clear
2:53 AM 57.2 °F 55.4 °F 94% 30.06 in 10.0 mi North 4.6 mph - N/A   Clear
3:13 AM 57.2 °F 53.6 °F 88% 30.07 in 10.0 mi North 5.8 mph - N/A   Clear
3:33 AM 57.2 °F 51.8 °F 82% 30.07 in 10.0 mi North 5.8 mph - N/A   Clear
3:53 AM 55.4 °F 51.8 °F 88% 30.08 in 10.0 mi North 4.6 mph - N/A   Clear
4:13 AM 55.4 °F 50.0 °F 82% 30.09 in 10.0 mi North 3.5 mph - N/A   Clear
4:33 AM 51.8 °F 48.2 °F 88% 30.10 in 10.0 mi Calm Calm - N/A   Clear
4:53 AM 50.0 °F 46.4 °F 87% 30.09 in 10.0 mi North 3.5 mph - N/A   Clear
5:13 AM 48.2 °F 46.4 °F 93% 30.10 in 10.0 mi Calm Calm - N/A   Clear
5:33 AM 48.2 °F 46.4 °F 93% 30.11 in 0.8 mi Calm Calm - N/A   Mist
5:53 AM 46.4 °F 44.6 °F 93% 30.11 in 1.8 mi Calm Calm - N/A   Mist
6:13 AM 46.4 °F 44.6 °F 93% 30.12 in 0.8 mi Calm Calm - N/A   Mist
6:33 AM 44.6 °F 42.8 °F 93% 30.14 in 10.0 mi Calm Calm - N/A   Clear
6:53 AM 44.6 °F 42.8 °F 93% 30.14 in 0.8 mi Calm Calm - N/A   Mist
7:13 AM 44.6 °F 42.8 °F 93% 30.15 in 1.8 mi Calm Calm - N/A   Mist
7:33 AM 46.4 °F 44.6 °F 93% 30.16 in 10.0 mi Calm Calm - N/A   Clear
7:53 AM 50.0 °F 48.2 °F 94% 30.16 in 10.0 mi Calm Calm - N/A   Clear
8:13 AM 53.6 °F 48.2 °F 82% 30.17 in 10.0 mi NNE 3.5 mph - N/A   Clear
8:33 AM 55.4 °F 48.2 °F 77% 30.17 in 10.0 mi NNE 4.6 mph - N/A   Clear
8:53 AM 55.4 °F 48.2 °F 77% 30.17 in 10.0 mi East 3.5 mph - N/A   Clear
9:14 AM 57.2 °F 48.2 °F 72% 30.18 in 10.0 mi ENE 3.5 mph - N/A   Clear
9:33 AM 59.0 °F 48.2 °F 67% 30.19 in 10.0 mi Calm Calm - N/A   Clear
9:53 AM 60.8 °F 48.2 °F 63% 30.19 in 10.0 mi Calm Calm - N/A   Clear
10:13 AM 60.8 °F 48.2 °F 63% 30.20 in 10.0 mi Calm Calm - N/A   Clear
10:33 AM 60.8 °F 48.2 °F 63% 30.20 in 10.0 mi Calm Calm - N/A   Clear
10:53 AM 62.6 °F 48.2 °F 59% 30.19 in 10.0 mi NNE 4.6 mph - N/A   Clear
11:13 AM 62.6 °F 48.2 °F 59% 30.20 in 10.0 mi NNE 3.5 mph - N/A   Clear
11:33 AM 64.4 °F 46.4 °F 52% 30.21 in 10.0 mi NNE 4.6 mph - N/A   Clear
11:53 AM 66.2 °F 42.8 °F 43% 30.20 in 10.0 mi NNW 5.8 mph - N/A   Clear
12:13 PM 66.2 °F 44.6 °F 46% 30.19 in 10.0 mi NE 3.5 mph - N/A   Clear
12:33 PM 66.2 °F 42.8 °F 43% 30.19 in 10.0 mi Calm Calm - N/A   Clear
12:53 PM 68.0 °F 42.8 °F 40% 30.19 in 10.0 mi North 6.9 mph - N/A   Clear
1:13 PM 68.0 °F 42.8 °F 40% 30.19 in 10.0 mi Calm Calm - N/A   Clear
1:33 PM 69.8 °F 44.6 °F 40% 30.18 in 10.0 mi Calm Calm - N/A   Clear
1:53 PM 69.8 °F 39.2 °F 33% 30.18 in 10.0 mi North 6.9 mph - N/A   Clear
2:13 PM 69.8 °F 39.2 °F 33% 30.18 in 10.0 mi North 4.6 mph - N/A   Clear
2:33 PM 71.6 °F 39.2 °F 31% 30.18 in 10.0 mi NNW 5.8 mph - N/A   Clear
2:53 PM 71.6 °F 39.2 °F 31% 30.17 in 10.0 mi North 4.6 mph - N/A   Clear
3:13 PM 71.6 °F 41.0 °F 33% 30.17 in 10.0 mi North 4.6 mph - N/A   Clear
3:33 PM 71.6 °F 42.8 °F 35% 30.17 in 10.0 mi North 3.5 mph - N/A   Clear
3:53 PM 71.6 °F 41.0 °F 33% 30.17 in 10.0 mi North 3.5 mph - N/A   Clear
4:13 PM 71.6 °F 41.0 °F 33% 30.17 in 10.0 mi NNW 5.8 mph - N/A   Clear
4:33 PM 71.6 °F 41.0 °F 33% 30.17 in 10.0 mi North 4.6 mph - N/A   Clear
4:53 PM 71.6 °F 42.8 °F 35% 30.17 in 10.0 mi Calm Calm - N/A   Clear
5:13 PM 71.6 °F 41.0 °F 33% 30.17 in 10.0 mi NNW 4.6 mph - N/A   Clear
5:33 PM 69.8 °F 44.6 °F 40% 30.17 in 10.0 mi North 6.9 mph - N/A   Clear
5:53 PM 69.8 °F 42.8 °F 38% 30.17 in 10.0 mi North 4.6 mph - N/A   Clear
6:13 PM 69.8 °F 42.8 °F 38% 30.18 in 10.0 mi North 4.6 mph - N/A   Clear
6:33 PM 68.0 °F 44.6 °F 43% 30.18 in 10.0 mi North 3.5 mph - N/A   Clear
6:53 PM 66.2 °F 46.4 °F 49% 30.18 in 10.0 mi North 3.5 mph - N/A   Clear
7:13 PM 62.6 °F 48.2 °F 59% 30.18 in 10.0 mi Calm Calm - N/A   Clear
7:33 PM 57.2 °F 48.2 °F 72% 30.18 in 10.0 mi Calm Calm - N/A   Clear
7:53 PM 55.4 °F 48.2 °F 77% 30.18 in 10.0 mi North 3.5 mph - N/A   Clear
8:13 PM 53.6 °F 48.2 °F 82% 30.19 in 10.0 mi Calm Calm - N/A   Clear
8:33 PM 51.8 °F 48.2 °F 88% 30.20 in 10.0 mi Calm Calm - N/A   Clear
8:53 PM 51.8 °F 46.4 °F 82% 30.19 in 10.0 mi Calm Calm - N/A   Clear
9:13 PM 50.0 °F 46.4 °F 87% 30.20 in 10.0 mi Calm Calm - N/A   Clear
9:33 PM 48.2 °F 46.4 °F 93% 30.20 in 10.0 mi Calm Calm - N/A   Clear
9:53 PM 46.4 °F 44.6 °F 93% 30.21 in 10.0 mi Calm Calm - N/A   Clear
10:13 PM 46.4 °F 44.6 °F 93% 30.21 in 10.0 mi Calm Calm - N/A   Clear
10:33 PM 46.4 °F 44.6 °F 93% 30.21 in 10.0 mi Calm Calm - N/A   Clear
10:53 PM 46.4 °F 42.8 °F 87% 30.22 in 10.0 mi Calm Calm - N/A   Clear
11:13 PM 44.6 °F 42.8 °F 93% 30.22 in 10.0 mi Calm Calm - N/A   Clear
11:33 PM 42.8 °F 41.0 °F 93% 30.22 in 10.0 mi Calm Calm - N/A   Clear
11:53 PM 42.8 °F 41.0 °F 93% 30.22 in 10.0 mi Calm Calm - N/A   Clear